Location: Amsterdam
(30.7274°N, 84.4357°W)
Time: 09:27:32
(UTC+00:00)

Vanguard 2 Rocket - Visible Passes

Search period start: 19 February 2026 00:00
Search period end: 01 March 2026 00:00
Orbit: 553 x 3286 km, 32.9° (Epoch: 18 February)

Date Brightness Start Highest point End Pass type
(mag) Time Alt. Az. Time Alt. Az. Time Alt. Az.
19 Feb 8.9 00:32:48 10° W 00:40:13 29° SW 00:45:05 10° SSE visible
21 Feb 9.2 00:36:08 10° W 00:42:28 21° SW 00:46:58 10° S visible
23 Feb 9.7 00:40:19 10° W 00:44:33 14° SW 00:47:59 10° SSW visible
26 Feb 10.9 11:08:40 10° SSE 11:14:44 13° SE 11:21:35 10° ESE visible
28 Feb 10.6 11:07:37 10° S 11:16:26 20° SE 11:27:28 10° E visible
